TimeEDT,TemperatureF,Dew PointF,Humidity,Sea Level PressureIn,VisibilityMPH,Wind Direction,Wind SpeedMPH,Gust SpeedMPH,PrecipitationIn,Events,Conditions,WindDirDegrees,DateUTC
12:54 AM,68.0,63.0,84,30.04,9.0,Calm,Calm,-,N/A,,Partly Cloudy,0,2013-10-05 04:54:00
1:54 AM,68.0,63.0,84,30.04,8.0,Calm,Calm,-,N/A,,Scattered Clouds,0,2013-10-05 05:54:00
2:54 AM,66.9,63.0,87,30.04,9.0,Calm,Calm,-,N/A,,Partly Cloudy,0,2013-10-05 06:54:00
3:54 AM,66.9,63.0,87,30.04,10.0,Calm,Calm,-,N/A,,Scattered Clouds,0,2013-10-05 07:54:00
4:54 AM,68.0,63.0,84,30.04,10.0,West,3.5,-,N/A,,Scattered Clouds,260,2013-10-05 08:54:00
5:54 AM,66.9,63.0,87,30.06,10.0,Calm,Calm,-,N/A,,Scattered Clouds,0,2013-10-05 09:54:00
6:54 AM,66.9,62.1,84,30.06,9.0,Calm,Calm,-,N/A,,Scattered Clouds,0,2013-10-05 10:54:00
7:54 AM,68.0,63.0,84,30.07,9.0,Calm,Calm,-,N/A,,Mostly Cloudy,0,2013-10-05 11:54:00
8:54 AM,75.9,64.0,67,30.08,10.0,Calm,Calm,-,N/A,,Scattered Clouds,0,2013-10-05 12:54:00
9:54 AM,80.1,64.9,60,30.09,10.0,Calm,Calm,-,N/A,,Mostly Cloudy,0,2013-10-05 13:54:00
10:54 AM,82.9,64.0,53,30.08,10.0,NW,5.8,-,N/A,,Mostly Cloudy,310,2013-10-05 14:54:00
11:54 AM,84.0,62.1,47,30.07,10.0,Calm,Calm,-,N/A,,Mostly Cloudy,0,2013-10-05 15:54:00
12:54 PM,86.0,61.0,43,30.06,10.0,Variable,3.5,-,N/A,,Mostly Cloudy,0,2013-10-05 16:54:00
1:54 PM,84.9,61.0,44,30.03,10.0,ESE,4.6,-,N/A,,Mostly Cloudy,120,2013-10-05 17:54:00
2:54 PM,86.0,60.1,41,30.02,10.0,Calm,Calm,-,N/A,,Mostly Cloudy,0,2013-10-05 18:54:00
3:54 PM,88.0,59.0,37,30.01,10.0,Calm,Calm,-,N/A,,Mostly Cloudy,0,2013-10-05 19:54:00
4:54 PM,88.0,60.1,39,30.00,10.0,SW,8.1,-,N/A,,Mostly Cloudy,230,2013-10-05 20:54:00
5:54 PM,82.9,64.9,54,30.00,10.0,SSE,6.9,-,N/A,,Scattered Clouds,150,2013-10-05 21:54:00
6:54 PM,80.1,66.0,62,30.01,10.0,SSE,4.6,-,N/A,,Scattered Clouds,150,2013-10-05 22:54:00
7:54 PM,77.0,64.9,66,30.01,10.0,Calm,Calm,-,N/A,,Scattered Clouds,0,2013-10-05 23:54:00
8:54 PM,75.0,64.9,71,30.02,10.0,SSE,4.6,-,N/A,,Mostly Cloudy,160,2013-10-06 00:54:00
9:54 PM,75.0,64.0,69,30.03,9.0,Calm,Calm,-,N/A,,Mostly Cloudy,0,2013-10-06 01:54:00
10:54 PM,72.0,64.9,78,30.04,7.0,Calm,Calm,-,N/A,,Scattered Clouds,0,2013-10-06 02:54:00
11:54 PM,72.0,64.9,78,30.03,10.0,Calm,Calm,-,N/A,,Partly Cloudy,0,2013-10-06 03:54:00